Terminal Aerodrome Forecast
Issued by NWS

Home | Current Version | Previous Version | Text Only | Print | Product List | Glossary On
Versions: 1 2 3 4 5 6 7 8 9 10 11 12 13 14 15 16 17 18 19 20 21 22 23
000
FTUS45 KREV 041733
TAFTVL
TAF
KTVL 041733Z 0418/0518 20017G28KT P6SM SCT060 SCT180
     FM050200 19008KT P6SM FEW060 FEW180
     FM050500 VRB03KT P6SM FEW180=

USA.gov is the U.S. government's official web portal to all federal, state and local government web resources and services.